N1BSO Weather Reports


Display with metric or nautical units.
time (UTC)temp
F
wind
direction
speed
MPH
gust
MPH
rain 1hr
in
rain 24hr
in
rain mn
in
humidity
%
barometer
mb
20260507070056 56 0 0.0 1.0 0.00 0.10 0.00 96 1005.3
20260507064600 56 0 0.0 1.0 0.00 0.10 0.00 96 1005.3
20260507063105 56 0 0.0 2.0 0.00 0.10 0.00 96 1005.3
20260507061558 56 192 1.0 3.0 0.00 0.10 0.00 96 1005.6
20260507060056 56 0 1.0 4.0 0.00 0.10 0.00 96 1005.8
20260507054557 56 292 0.0 5.0 0.00 0.10 0.00 96 1005.7
20260507053108 56 259 0.0 4.0 0.00 0.10 0.00 96 1005.8
20260507051557 56 247 2.0 6.0 0.00 0.10 0.00 96 1006.0
20260507050058 56 319 0.0 8.0 0.00 0.10 0.00 96 1006.5
20260507044608 56 313 1.0 6.0 0.00 0.10 0.00 96 1006.1
20260507043058 56 217 2.0 7.0 0.00 0.10 0.00 96 1006.1
20260507041559 56 256 1.0 8.0 0.00 0.10 0.00 96 1006.2
20260507034559 56 290 1.0 11.0 0.00 0.10 0.10 95 1006.5
20260507033109 56 211 2.0 8.0 0.00 0.10 0.10 95 1006.5
20260507031559 56 232 3.0 11.0 0.00 0.10 0.10 95 1006.4
20260507024605 56 140 3.0 12.0 0.00 0.10 0.10 95 1005.9
20260507023054 56 167 4.0 10.0 0.00 0.10 0.10 95 1006.1
20260507021556 56 0 3.0 8.0 0.00 0.10 0.10 95 1006.2
20260507020112 56 180 4.0 11.0 0.00 0.10 0.10 95 1006.5
20260507014605 56 257 2.0 10.0 0.00 0.10 0.10 95 1006.6
20260507013058 56 165 3.0 10.0 0.01 0.10 0.10 95 1006.7
20260507011556 56 290 3.0 10.0 0.01 0.10 0.10 95 1006.9
20260507004602 57 259 4.0 11.0 0.02 0.10 0.10 95 1006.8
20260507003055 57 205 3.0 17.0 0.01 0.09 0.09 94 1006.9
20260507001556 57 304 5.0 20.0 0.03 0.09 0.09 95 1006.7
20260507000056 57 346 3.0 18.0 0.05 0.09 0.09 95 1006.9
20260506234555 57 178 4.0 10.0 0.05 0.08 0.08 94 1006.7
20260506233111 57 212 3.0 12.0 0.06 0.08 0.08 94 1006.8
20260506231600 57 204 4.0 11.0 0.04 0.06 0.06 93 1007.0
20260506230056 58 179 3.0 12.0 0.02 0.04 0.04 93 1006.7
20260506224600 58 257 3.0 14.0 0.01 0.03 0.03 92 1006.8
20260506223057 59 231 5.0 16.0 0.00 0.02 0.02 91 1007.3
20260506221611 59 156 3.0 20.0 0.00 0.02 0.02 91 1007.2
20260506220056 59 173 3.0 12.0 0.00 0.02 0.02 91 1007.2
20260506214557 60 243 2.0 11.0 0.01 0.02 0.02 91 1007.3
20260506213115 60 138 2.0 14.0 0.01 0.02 0.02 89 1007.3
20260506211558 61 233 3.0 12.0 0.01 0.02 0.02 88 1007.8
20260506210058 60 212 4.0 18.0 0.02 0.02 0.02 88 1007.5
20260506204556 60 194 4.0 19.0 0.01 0.01 0.01 89 1007.6
20260506203059 60 304 5.0 14.0 0.01 0.01 0.01 89 1007.8
20260506201555 60 158 4.0 15.0 0.01 0.01 0.01 88 1007.9
20260506200055 62 274 4.0 14.0 0.00 0.00 0.00 84 1008.2
20260506194602 63 171 5.0 13.0 0.00 0.00 0.00 79 1008.3
20260506193058 63 290 6.0 20.0 0.00 0.00 0.00 78 1008.2
20260506191556 64 238 7.0 23.0 0.00 0.00 0.00 77 1008.3
20260506190058 64 241 8.0 20.0 0.00 0.00 0.00 77 1007.9
20260506184556 64 213 9.0 25.0 0.00 0.00 0.00 76 1008.1
20260506183104 65 288 4.0 18.0 0.00 0.00 0.00 76 1008.4
20260506181621 65 116 7.0 25.0 0.00 0.00 0.00 75 1008.8
20260506180058 66 155 6.0 23.0 0.00 0.00 0.00 73 1009.2
20260506174559 67 217 7.0 23.0 0.00 0.00 0.00 72 1009.8
20260506173108 67 184 7.0 25.0 0.00 0.00 0.00 73 1009.3
20260506171602 67 244 7.0 23.0 0.00 0.00 0.00 72 1009.3
20260506170058 67 220 10.0 26.0 0.00 0.00 0.00 74 1009.4
20260506164607 67 182 8.0 22.0 0.00 0.00 0.00 72 1009.9
20260506163058 67 209 7.0 19.0 0.00 0.00 0.00 72 1009.8
20260506161557 67 171 9.0 27.0 0.00 0.00 0.00 71 1010.0
20260506160105 68 271 7.0 25.0 0.00 0.00 0.00 71 1010.1
20260506154602 68 297 8.0 25.0 0.00 0.00 0.00 71 1010.5
20260506153112 67 231 5.0 22.0 0.00 0.00 0.00 72 1010.4
20260506151556 68 206 6.0 16.0 0.00 0.00 0.00 71 1010.7
20260506144559 68 171 4.0 13.0 0.00 0.00 0.00 70 1010.3
20260506143059 68 175 5.0 18.0 0.00 0.00 0.00 70 1010.3
20260506141555 68 141 6.0 20.0 0.00 0.00 0.00 70 1010.2
20260506134556 66 270 6.0 20.0 0.00 0.00 0.00 74 1011.0
20260506133056 65 279 6.0 16.0 0.00 0.00 0.00 76 1011.0
20260506131556 64 202 5.0 10.0 0.00 0.00 0.00 78 1010.8
20260506130058 63 286 6.0 11.0 0.00 0.00 0.00 79 1010.9
20260506124601 62 317 6.0 19.0 0.00 0.00 0.00 81 1010.7
20260506123057 61 234 6.0 14.0 0.00 0.00 0.00 83 1010.9
20260506121556 60 234 4.0 16.0 0.00 0.00 0.00 84 1011.3
20260506120058 60 185 5.0 17.0 0.00 0.00 0.00 84 1011.3
20260506114559 60 301 8.0 15.0 0.00 0.00 0.00 85 1011.5
20260506113058 59 185 4.0 14.0 0.00 0.00 0.00 86 1011.5
20260506111555 59 185 5.0 15.0 0.00 0.00 0.00 87 1011.5
20260506110058 59 241 4.0 15.0 0.00 0.00 0.00 87 1011.5
20260506104600 58 239 3.0 10.0 0.00 0.00 0.00 87 1011.4
20260506103057 58 231 5.0 12.0 0.00 0.00 0.00 87 1011.4
20260506101555 59 232 3.0 13.0 0.00 0.00 0.00 87 1011.3
20260506100056 58 184 4.0 15.0 0.00 0.00 0.00 87 1011.1
20260506094555 58 339 5.0 14.0 0.00 0.00 0.00 87 1011.2
20260506093057 58 210 4.0 13.0 0.00 0.00 0.00 87 1011.1
20260506091600 58 207 5.0 15.0 0.00 0.00 0.00 87 1011.2
20260506090100 58 103 4.0 11.0 0.00 0.00 0.00 87 1011.4
20260506084605 58 188 4.0 19.0 0.00 0.00 0.00 86 1011.4
20260506083055 59 183 4.0 14.0 0.00 0.00 0.00 86 1011.4
20260506081559 59 194 5.0 14.0 0.00 0.00 0.00 85 1011.4
20260506080108 59 0 3.0 19.0 0.00 0.00 0.00 85 1011.3
20260506073058 59 148 4.0 17.0 0.00 0.00 0.00 84 1011.3
20260506071606 59 175 5.0 14.0 0.00 0.00 0.00 84 1011.3